Date,TemperatureHighF,TemperatureAvgF,TemperatureLowF,DewpointHighF,DewpointAvgF,DewpointLowF,HumidityHigh,HumidityAvg,HumidityLow,PressureMaxIn,PressureMinIn,WindSpeedMaxMPH,WindSpeedAvgMPH,GustSpeedMaxMPH,PrecipitationSumIn
2013-1-1,32.5,28.0,25.6,19.4,11.4,5.9,65,50,32,29.73,29.65,27,13,31,0.00
2013-1-2,38.6,31.4,25.6,7.7,3.3,-2.4,46,31,17,29.67,29.62,27,17,31,0.00
2013-1-3,36.9,34.0,30.1,5.9,2.1,-2.9,34,25,21,29.74,29.62,24,15,31,0.00
2013-1-4,49.2,39.5,30.0,8.4,-5.1,-27.2,26,16,4,29.80,29.74,20,6,27,0.00
2013-1-5,52.8,44.9,34.7,8.6,-7.8,-27.9,33,12,4,29.83,29.73,9,3,12,0.00
2013-1-6,34.7,29.9,26.6,31.2,20.8,-2.6,95,76,20,29.73,29.51,27,15,30,0.01
2013-1-7,39.3,31.6,25.3,26.6,19.8,8.8,96,67,28,29.64,29.48,20,12,26,0.03
2013-1-8,52.0,46.0,40.1,21.2,14.7,0.8,37,28,17,29.78,29.64,20,12,26,0.00
2013-1-9,56.2,47.7,38.9,29.2,23.7,18.8,51,39,29,29.80,29.64,16,8,23,0.00
2013-1-10,38.9,27.8,19.2,31.9,24.3,16.5,96,88,51,29.64,29.39,30,7,35,0.18
2013-1-11,24.2,19.7,16.2,19.9,16.6,13.0,90,88,79,29.60,29.50,0,0,0,0.00
2013-1-12,26.9,21.3,15.9,17.5,13.6,7.3,89,73,49,29.59,29.49,0,0,0,0.00
2013-1-13,30.3,22.3,17.5,19.1,11.8,4.4,86,65,49,29.60,29.51,13,4,15,0.00
2013-1-14,24.4,19.2,14.9,4.7,-5.7,-11.9,56,34,19,29.70,29.58,33,13,35,0.00
2013-1-15,32.4,25.2,17.3,11.1,3.0,-9.5,46,38,28,29.82,29.71,32,24,37,0.00
2013-1-16,38.9,33.0,29.8,17.3,14.1,11.1,50,45,35,29.87,29.76,35,21,44,0.00
2013-1-17,43.2,39.2,36.5,12.3,9.9,8.2,34,29,25,29.83,29.76,27,18,32,0.00
2013-1-18,46.7,42.1,39.2,14.0,11.6,9.5,32,28,26,29.81,29.76,18,12,20,0.00
2013-1-19,48.6,42.2,39.2,11.5,8.7,5.4,28,25,21,29.83,29.78,15,10,19,0.00
2013-1-20,49.6,45.6,42.3,7.0,3.7,-2.6,20,17,13,29.82,29.72,17,8,17,0.00
2013-1-21,51.9,46.2,42.3,2.2,-1.6,-4.0,15,13,10,29.78,29.71,17,10,21,0.00
2013-1-22,61.6,51.6,43.3,24.1,5.3,-14.4,35,16,6,29.81,29.76,10,4,15,0.00
2013-1-23,56.9,51.4,45.2,33.3,26.7,21.3,61,39,28,29.82,29.76,14,5,24,0.00
2013-1-24,49.1,45.1,41.3,48.0,42.0,29.7,97,89,57,29.82,29.74,10,3,16,0.13
2013-1-25,45.8,44.3,41.9,45.0,43.4,40.8,97,96,95,29.81,29.64,6,2,13,0.79
2013-1-26,44.1,41.7,39.6,43.3,40.9,38.8,97,97,96,29.63,29.56,13,5,19,0.48
2013-1-27,39.3,33.2,25.0,38.5,32.0,23.3,97,96,88,29.62,29.50,26,12,33,0.04
2013-1-28,26.6,25.0,23.3,24.6,23.1,21.3,93,92,91,29.67,29.51,18,9,22,0.00
2013-1-29,49.5,35.7,23.5,30.0,23.6,18.7,90,64,39,29.77,29.66,20,9,27,0.04
2013-1-30,48.5,40.6,33.7,24.7,22.4,20.8,65,49,34,29.88,29.77,27,14,28,0.00
2013-1-31,46.0,43.1,40.1,27.9,24.8,21.3,55,48,40,29.85,29.77,23,14,26,0.00
2013-2-1,59.3,50.3,43.9,28.5,17.4,5.9,42,28,17,29.86,29.79,11,4,16,0.00
2013-2-2,55.6,50.6,47.3,28.2,18.4,5.9,45,29,17,29.87,29.81,6,2,14,0.00
2013-2-3,50.2,44.9,41.6,39.0,34.9,26.2,83,69,44,29.82,29.68,16,5,18,0.02
2013-2-4,49.9,44.9,40.9,33.8,27.4,24.3,73,51,37,29.73,29.67,13,5,18,0.00
2013-2-5,56.3,47.0,41.2,32.4,24.9,18.9,60,42,33,29.71,29.62,9,3,17,0.00
2013-2-6,52.8,44.7,39.8,23.6,17.3,2.7,49,35,16,29.71,29.57,25,6,25,0.00
2013-2-7,52.0,42.6,28.2,29.6,18.1,0.1,89,42,16,29.72,29.53,14,5,21,0.00
2013-2-8,28.2,25.2,22.5,26.4,23.1,20.0,93,92,90,29.51,29.37,24,14,31,0.00
2013-2-9,27.2,23.5,20.0,25.5,21.2,17.3,93,91,89,29.57,29.38,14,7,16,0.00
2013-2-10,28.7,24.5,20.5,26.9,22.3,17.8,93,91,89,29.57,29.51,11,3,11,0.00
2013-2-11,29.0,25.2,21.3,27.0,21.5,13.1,93,86,70,29.70,29.54,9,2,9,0.04
2013-2-12,37.0,29.5,22.4,14.9,8.4,4.0,68,43,27,29.79,29.71,22,10,25,0.01
2013-2-13,48.8,39.8,33.1,17.9,11.8,4.2,37,32,26,29.79,29.74,21,9,25,0.00
2013-2-14,45.7,42.7,39.3,20.3,18.5,16.9,41,37,35,29.80,29.71,26,14,28,0.00
2013-2-15,44.2,41.8,38.9,17.9,12.6,4.8,39,31,20,29.85,29.73,30,22,37,0.00
2013-2-16,52.0,46.0,40.3,13.8,4.7,-6.7,28,19,9,29.84,29.68,22,9,29,0.00
2013-2-17,48.0,41.8,37.2,25.6,10.8,5.7,56,29,22,29.67,29.56,24,10,25,0.00
2013-2-18,52.8,43.6,35.5,33.5,11.6,0.3,74,30,17,29.64,29.56,9,4,14,0.00
2013-2-19,35.3,28.1,24.7,28.0,19.9,-6.5,94,79,16,29.53,29.27,20,8,20,0.00
2013-2-20,26.6,23.7,20.3,24.6,21.4,17.6,93,91,89,29.51,29.20,24,12,24,0.00
2013-2-21,29.5,26.0,21.6,28.0,24.0,19.1,94,92,90,29.61,29.50,9,3,10,0.01
2013-2-22,43.6,32.5,24.2,29.8,18.5,13.3,90,58,38,29.74,29.60,17,7,22,0.11
2013-2-23,46.7,38.5,30.7,26.3,18.2,9.6,74,45,28,29.71,29.53,19,7,19,0.01
2013-2-24,34.0,31.0,27.2,22.1,4.7,-4.2,64,35,21,29.71,29.54,28,13,31,0.00
2013-2-25,47.6,37.8,29.5,14.3,5.1,-2.7,38,26,12,29.74,29.65,17,7,19,0.00
2013-2-26,42.1,39.4,36.0,9.8,3.8,-13.4,29,23,9,29.74,29.59,23,10,25,0.00
2013-2-27,40.1,36.4,31.2,8.0,3.4,-1.8,30,25,18,29.84,29.74,22,13,25,0.00
2013-2-28,44.9,41.7,36.9,6.4,3.2,-1.4,21,20,19,29.92,29.83,24,16,25,0.00
2013-3-1,51.0,46.9,43.3,16.0,11.4,6.2,27,23,21,29.94,29.88,24,15,24,0.00
2013-3-2,65.5,53.6,46.8,23.6,15.4,-0.9,32,23,11,29.92,29.80,14,5,19,0.00
2013-3-3,53.1,46.2,36.8,28.3,17.0,6.7,71,34,18,29.76,29.59,27,14,29,0.00
2013-3-4,52.0,42.6,33.4,38.8,31.3,25.3,94,67,38,29.75,29.56,28,9,29,0.00
2013-3-5,53.3,43.7,37.5,32.0,26.0,8.3,61,50,28,29.74,29.66,16,6,16,0.00
2013-3-6,51.1,39.6,30.9,33.5,23.4,4.0,94,59,16,29.67,29.59,20,11,20,0.00
2013-3-7,36.2,33.0,30.0,35.2,31.5,28.6,96,94,90,29.57,29.47,23,13,29,0.03
2013-3-8,31.5,27.2,24.2,30.5,25.6,22.2,96,93,92,29.53,29.34,17,2,19,0.04
2013-3-9,32.1,30.3,27.2,31.1,29.1,25.7,96,95,94,29.74,29.51,17,3,17,0.24
2013-3-10,46.2,38.7,31.6,30.1,20.8,10.6,93,54,28,29.82,29.75,25,14,25,0.00
2013-3-11,60.1,49.2,41.6,28.7,15.6,7.1,39,26,14,29.82,29.75,19,7,20,0.00
2013-3-12,56.5,52.7,48.0,20.2,15.6,7.5,26,23,18,29.82,29.73,20,13,27,0.00
2013-3-13,62.7,56.9,52.3,22.0,20.6,18.4,28,24,20,29.86,29.80,22,11,24,0.00
2013-3-14,65.8,60.1,54.7,25.8,22.1,19.1,26,23,18,29.85,29.81,26,10,26,0.00
2013-3-15,69.8,61.1,51.3,33.3,25.0,11.9,44,25,18,29.83,29.70,14,4,20,0.00
2013-3-16,64.2,56.1,51.7,30.9,12.9,-13.2,35,19,6,29.68,29.61,19,9,23,0.00
2013-3-17,62.7,55.0,49.6,36.0,18.5,6.8,39,24,15,29.67,29.62,12,6,16,0.00
2013-3-18,61.8,53.4,48.3,36.9,12.3,-1.9,48,21,10,29.70,29.62,16,6,23,0.00
2013-3-19,56.3,50.3,46.1,36.9,24.5,10.0,60,37,20,29.76,29.66,22,9,28,0.00
2013-3-20,58.1,50.9,43.8,32.5,24.8,12.4,45,36,26,29.76,29.64,21,9,28,0.00
2013-3-21,59.3,50.1,42.5,40.2,28.0,5.7,71,46,17,29.62,29.51,17,8,33,0.00
2013-3-22,57.5,48.5,42.1,39.5,24.2,11.2,72,40,22,29.59,29.44,18,7,26,0.00
2013-3-23,55.9,48.7,45.1,38.8,14.3,-7.5,72,28,10,29.69,29.57,20,6,22,0.00
2013-3-24,59.3,52.1,45.2,40.3,26.2,11.7,65,39,20,29.68,29.62,11,2,14,0.00
2013-3-25,64.0,54.6,47.7,39.1,26.3,16.7,56,35,24,29.68,29.64,10,3,13,0.00
2013-3-26,57.8,50.2,44.9,29.2,14.6,1.4,35,25,13,29.67,29.59,18,10,19,0.00
2013-3-27,53.5,46.4,41.9,32.1,20.8,2.5,68,38,16,29.66,29.57,23,12,24,0.00
2013-3-28,59.9,50.5,41.6,39.0,30.9,20.1,73,48,32,29.75,29.66,18,5,26,0.00
2013-3-29,59.9,53.8,49.1,42.4,29.2,7.8,67,40,17,29.79,29.74,10,2,10,0.00
2013-3-30,58.1,52.8,47.9,40.9,25.6,2.4,70,38,13,29.77,29.73,17,6,20,0.00
2013-3-31,48.8,43.4,35.9,39.4,34.6,15.3,95,74,30,29.75,29.67,22,12,31,0.00
2013-4-1,47.4,39.5,32.1,36.1,26.9,6.8,95,66,24,29.71,29.65,17,10,29,0.00
2013-4-2,56.7,46.8,34.7,43.7,29.4,19.8,93,54,27,29.73,29.63,13,5,21,0.00
2013-4-3,62.3,54.2,49.5,39.4,27.5,22.5,52,36,26,29.78,29.73,13,4,13,0.00
2013-4-4,59.3,53.9,44.6,36.8,23.8,-2.6,74,35,9,29.78,29.70,25,9,33,0.00
2013-4-5,53.2,45.4,40.9,40.4,32.5,23.3,85,62,31,29.70,29.65,25,16,33,0.00
2013-4-6,61.6,51.1,41.8,41.4,30.8,18.4,73,48,23,29.69,29.63,23,8,27,0.00
2013-4-7,64.7,54.2,45.8,47.0,28.9,14.2,63,40,20,29.65,29.52,13,6,20,0.00
2013-4-8,44.5,34.2,29.5,35.9,31.8,28.2,95,91,69,29.50,29.28,38,12,38,0.04
2013-4-9,46.8,37.0,27.6,33.8,25.2,10.8,95,67,28,29.65,29.41,10,2,13,0.03
2013-4-10,56.3,46.1,39.2,25.6,15.3,8.4,41,29,18,29.74,29.65,15,6,23,0.00
2013-4-11,60.1,52.1,47.1,38.3,20.7,7.7,62,30,18,29.73,29.53,14,7,23,0.00
2013-4-12,58.4,54.2,48.9,28.2,20.4,14.3,38,27,22,29.63,29.50,16,5,25,0.00
2013-4-13,60.2,54.1,47.3,33.2,26.1,18.8,49,34,25,29.63,29.54,19,9,23,0.00
2013-4-14,55.9,48.4,41.1,39.8,27.2,-20.4,74,48,5,29.54,29.46,22,15,27,0.00
2013-4-15,45.8,38.4,31.0,36.7,33.3,29.7,95,83,53,29.50,29.45,29,19,30,0.00
2013-4-16,35.9,30.1,25.0,29.6,27.0,22.7,95,88,73,29.52,29.39,29,17,39,0.00
2013-4-17,45.2,36.2,26.7,26.0,12.4,1.3,94,46,18,29.73,29.53,19,6,25,0.00
2013-4-18,46.4,40.9,35.5,12.3,6.0,0.4,34,24,17,29.81,29.69,31,13,34,0.00
2013-4-19,62.4,49.7,41.9,17.1,7.0,0.5,24,17,12,29.80,29.71,23,11,30,0.00
2013-4-20,63.9,57.3,49.6,27.5,15.7,7.8,27,19,16,29.75,29.65,11,4,17,0.00
2013-4-21,70.1,61.6,54.4,33.7,22.6,9.3,34,23,15,29.76,29.71,6,2,13,0.00
2013-4-22,67.8,59.7,52.2,37.2,15.6,-13.6,41,20,5,29.74,29.60,12,4,18,0.00
2013-4-23,60.4,55.4,51.3,33.6,22.6,16.4,49,28,22,29.66,29.58,16,7,24,0.00
2013-4-24,60.2,53.5,36.8,42.7,26.7,13.9,90,39,18,29.65,29.55,10,4,18,0.00
2013-4-25,59.2,44.5,33.4,41.7,33.1,19.1,96,71,27,29.76,29.53,15,7,20,0.01
2013-4-26,63.5,57.7,51.7,30.4,21.2,14.5,31,24,19,29.86,29.75,6,2,10,0.00
2013-4-27,69.1,61.9,55.0,35.7,21.7,11.9,34,22,11,29.86,29.77,11,3,12,0.00
2013-4-28,71.5,63.8,57.8,29.1,18.8,9.4,25,18,9,29.78,29.67,12,3,18,0.00
2013-4-29,71.6,64.6,58.1,32.1,17.5,7.5,28,17,10,29.68,29.59,16,7,18,0.00
2013-4-30,66.3,59.3,54.1,42.5,24.4,6.0,52,29,12,29.60,29.56,17,11,21,0.00
2013-5-1,62.6,58.5,54.4,27.4,17.6,-0.2,35,21,9,29.82,29.59,23,12,29,0.00
2013-5-2,58.1,54.1,47.3,3.9,-0.7,-4.2,13,10,9,29.85,29.78,25,15,29,0.00
2013-5-3,65.0,58.8,53.8,21.4,7.3,-5.2,23,13,8,29.80,29.64,22,10,25,0.00
2013-5-4,64.2,55.8,44.5,30.1,13.3,1.7,37,20,12,29.62,29.50,27,8,27,0.00
2013-5-5,51.4,44.2,35.6,39.6,26.2,8.9,95,55,22,29.58,29.49,21,12,27,0.00
2013-5-6,43.1,39.8,37.8,42.3,38.9,37.0,97,97,96,29.62,29.53,21,12,31,0.34
2013-5-7,39.3,37.2,34.0,38.5,36.5,33.2,98,97,97,29.67,29.57,23,15,29,0.32
2013-5-8,50.1,40.6,33.8,45.3,38.2,30.8,98,92,66,29.71,29.65,10,4,16,0.01
2013-5-9,56.7,49.0,37.5,46.5,36.8,29.1,91,64,43,29.74,29.67,12,4,15,0.00
2013-5-10,63.2,56.0,49.1,47.9,36.3,31.0,65,49,31,29.83,29.73,11,4,16,0.00
2013-5-11,68.1,63.0,56.6,38.6,30.9,26.1,50,31,22,29.88,29.81,22,8,24,0.00
2013-5-12,72.5,66.7,62.0,31.3,27.0,25.1,28,22,18,29.89,29.81,14,5,20,0.00
2013-5-13,75.8,69.6,65.0,34.4,27.4,22.0,27,21,16,29.85,29.77,6,3,16,0.00
2013-5-14,71.8,64.1,55.1,28.2,22.0,3.4,27,20,12,29.79,29.70,23,11,29,0.00
2013-5-15,64.0,57.2,50.8,41.1,26.4,6.5,48,32,15,29.74,29.69,22,13,25,0.00
2013-5-16,66.4,58.8,51.1,32.6,21.9,-4.1,41,26,9,29.70,29.60,17,11,22,0.00
2013-5-17,56.5,50.3,43.5,44.0,36.1,25.8,84,59,38,29.65,29.59,21,14,27,0.00
2013-5-18,64.3,53.4,44.6,46.3,37.3,27.0,73,56,34,29.71,29.63,22,10,29,0.00
2013-5-19,70.8,61.4,51.9,49.1,32.7,13.4,58,35,18,29.70,29.65,16,4,17,0.00
2013-5-20,69.8,61.9,58.1,39.0,30.1,23.4,45,31,19,29.74,29.69,16,6,23,0.00
2013-5-21,69.6,62.7,55.6,43.2,33.7,25.5,59,34,23,29.73,29.63,15,6,19,0.00
2013-5-22,65.3,56.2,47.6,35.1,19.7,-16.5,38,26,6,29.62,29.51,24,14,30,0.00
2013-5-23,58.6,50.8,46.1,30.3,0.2,-29.4,49,15,3,29.62,29.50,22,14,26,0.00
2013-5-24,63.2,55.0,48.8,36.6,2.2,-28.7,41,16,3,29.67,29.58,13,5,16,0.00
2013-5-25,63.2,54.1,46.1,31.6,5.6,-18.6,38,16,5,29.68,29.62,15,8,16,0.00
2013-5-26,60.9,53.3,47.4,37.6,15.6,-21.5,46,27,4,29.71,29.63,21,10,24,0.00
2013-5-27,66.8,56.7,47.6,42.8,31.5,24.6,58,40,21,29.65,29.60,18,8,26,0.00
2013-5-28,59.8,54.3,50.2,44.6,38.0,31.1,69,54,42,29.60,29.52,20,12,26,0.00
2013-5-29,73.0,62.7,51.1,44.3,36.1,29.4,54,38,23,29.60,29.54,23,8,23,0.00
2013-5-30,73.5,65.9,57.8,49.2,29.4,-4.5,53,29,6,29.67,29.56,17,6,22,0.00
2013-5-31,77.0,69.6,65.6,42.4,28.4,7.9,34,23,10,29.70,29.63,16,5,16,0.00
2013-6-1,77.0,70.6,64.0,48.5,35.9,26.6,57,30,16,29.70,29.66,20,7,23,0.00
2013-6-2,77.2,69.2,59.3,42.3,27.2,20.5,49,22,16,29.68,29.58,14,5,16,0.00
2013-6-3,74.0,64.7,58.9,44.3,29.1,11.4,39,27,15,29.65,29.57,8,4,12,0.00
2013-6-4,73.2,64.6,56.5,40.4,13.2,-11.9,42,15,5,29.70,29.63,10,3,13,0.00
2013-6-5,77.4,69.4,61.8,42.1,19.0,0.1,31,16,8,29.73,29.68,8,3,11,0.00
2013-6-6,80.1,72.2,64.8,39.5,18.7,2.1,27,14,7,29.71,29.67,9,3,14,0.00
2013-6-7,81.4,74.9,69.3,42.0,19.5,-4.3,27,13,5,29.69,29.64,13,3,14,0.00
2013-6-8,81.4,75.7,68.4,42.2,19.5,-8.9,25,13,4,29.71,29.62,15,3,15,0.00
2013-6-9,77.6,69.5,59.5,25.1,9.1,-10.6,18,10,4,29.71,29.67,18,6,24,0.00
2013-6-10,72.5,63.5,57.8,33.5,17.3,-0.6,32,17,9,29.71,29.65,16,8,20,0.00
2013-6-11,79.6,71.5,60.9,33.4,23.0,13.5,22,16,11,29.76,29.69,11,4,16,0.00
2013-6-12,77.0,69.4,60.7,40.5,26.1,1.8,34,20,9,29.77,29.73,20,6,20,0.00
2013-6-13,75.8,67.3,61.3,30.8,20.5,-0.5,24,17,8,29.77,29.70,12,6,17,0.00
2013-6-14,75.8,67.7,59.9,36.3,15.3,-9.5,28,14,5,29.70,29.65,12,5,14,0.00
2013-6-15,73.3,64.0,58.4,29.8,3.0,-22.0,22,10,3,29.71,29.64,14,7,20,0.00
2013-6-16,73.7,65.8,59.0,33.8,5.7,-21.3,26,10,3,29.76,29.70,13,7,14,0.00
2013-6-17,76.0,68.3,62.0,34.1,16.3,2.0,28,14,8,29.75,29.71,12,4,15,0.00
2013-6-18,74.0,66.2,59.3,33.5,19.6,7.2,27,17,11,29.70,29.63,14,7,19,0.00
2013-6-19,72.5,63.8,57.3,27.0,12.2,-15.5,25,14,4,29.64,29.57,19,10,24,0.00
2013-6-20,74.4,64.9,58.0,37.7,15.4,-10.9,37,16,5,29.65,29.57,13,7,22,0.00
2013-6-21,72.3,64.8,57.2,37.4,16.9,-8.5,33,17,5,29.68,29.61,15,7,16,0.00
2013-6-22,74.0,64.4,57.0,36.7,21.3,-7.1,31,20,6,29.68,29.62,13,7,17,0.00
2013-6-23,69.3,61.5,55.4,38.7,26.4,5.0,43,28,11,29.64,29.57,22,10,25,0.00
2013-6-24,64.2,56.7,51.9,46.6,32.2,12.0,77,45,17,29.66,29.57,18,13,28,0.00
2013-6-25,75.3,65.3,52.8,49.8,43.1,23.6,74,46,26,29.76,29.66,14,6,21,0.00
2013-6-26,81.1,72.9,64.7,50.9,45.4,38.6,49,38,31,29.84,29.76,9,2,13,0.00
2013-6-27,83.4,74.7,68.3,46.1,33.6,5.2,35,24,7,29.89,29.84,14,3,17,0.00
2013-6-28,86.7,78.6,71.3,38.7,21.2,-5.6,22,13,4,29.87,29.79,15,6,17,0.00
2013-6-29,91.8,81.9,75.3,45.2,34.7,26.1,26,19,13,29.79,29.73,12,4,15,0.00
2013-6-30,93.4,83.3,75.8,47.8,34.9,26.4,27,18,13,29.76,29.71,10,3,17,0.00
2013-7-1,82.6,76.5,70.4,47.5,40.6,35.7,41,28,22,29.78,29.74,15,6,15,0.00
2013-7-2,84.3,75.3,70.8,42.7,39.6,36.0,35,28,21,29.84,29.77,14,5,17,0.00
2013-7-3,80.9,74.1,69.8,41.6,37.0,32.9,28,26,23,29.79,29.70,16,6,20,0.00
2013-7-4,84.9,76.6,71.1,42.6,36.0,28.8,28,23,20,29.71,29.66,14,5,16,0.00
2013-7-5,84.9,76.9,70.6,53.0,35.4,19.5,44,24,13,29.70,29.65,9,4,16,0.00
2013-7-6,84.0,74.3,69.9,46.5,39.4,28.0,39,29,20,29.68,29.63,4,1,9,0.00
2013-7-7,84.0,76.2,70.3,44.9,38.8,28.0,35,26,20,29.73,29.65,7,3,15,0.00
2013-7-8,84.7,75.9,70.6,37.9,29.9,23.0,26,18,15,29.83,29.73,13,4,17,0.00
2013-7-9,83.0,77.2,73.0,53.0,39.8,28.0,44,27,18,29.88,29.81,11,2,13,0.00
2013-7-10,80.9,72.8,67.1,53.3,41.7,35.0,51,33,21,29.83,29.75,10,3,13,0.00
2013-7-11,67.6,64.4,60.7,53.6,47.8,34.9,71,56,31,29.77,29.72,12,3,12,0.05
2013-7-12,74.4,66.5,61.3,54.9,49.9,47.2,63,55,44,29.76,29.72,11,1,12,0.00
2013-7-13,77.2,70.9,65.2,52.9,49.2,44.8,57,47,37,29.79,29.74,11,1,11,0.00
2013-7-14,80.9,73.3,68.4,47.8,45.9,44.2,46,38,29,29.79,29.72,7,2,13,0.00
2013-7-15,77.9,70.4,64.0,46.0,39.8,28.6,40,33,26,29.74,29.67,18,5,19,0.00
2013-7-16,74.9,67.3,62.9,30.5,22.1,-4.5,27,19,6,29.79,29.68,17,10,21,0.00
2013-7-17,82.6,72.5,62.9,34.5,10.0,-14.2,20,10,3,29.83,29.77,11,3,18,0.00
2013-7-18,84.9,77.8,70.8,34.7,10.4,-13.9,19,9,3,29.81,29.74,13,2,15,0.00
2013-7-19,84.3,77.1,69.9,50.4,22.6,3.1,50,15,6,29.76,29.70,8,2,10,0.00
2013-7-20,74.7,66.9,61.6,60.7,52.8,17.0,91,67,12,29.73,29.68,13,5,18,0.79
2013-7-21,66.4,62.8,58.9,61.2,57.7,51.7,95,84,59,29.76,29.68,15,4,15,0.75
2013-7-22,66.0,62.5,59.0,61.2,56.9,53.3,91,82,70,29.80,29.74,6,1,7,0.19
2013-7-23,73.7,66.8,61.0,58.6,55.9,53.1,81,69,57,29.82,29.76,16,3,16,0.00
2013-7-24,77.2,71.1,65.0,56.6,52.2,40.4,65,52,37,29.80,29.74,10,2,18,0.00
2013-7-25,78.8,73.3,67.4,54.4,44.5,32.7,48,36,27,29.85,29.76,7,2,12,0.00
2013-7-26,75.8,71.0,67.1,53.8,47.7,33.5,57,44,27,29.88,29.83,11,2,11,0.00
2013-7-27,77.6,70.4,65.3,51.4,45.3,38.8,58,41,33,29.85,29.73,12,3,21,0.00
2013-7-28,73.3,66.2,60.5,42.4,34.5,28.4,44,31,24,29.74,29.68,16,8,20,0.00
2013-7-29,77.6,69.0,60.7,46.0,34.3,19.2,38,28,17,29.82,29.71,11,5,11,0.00
2013-7-30,77.6,69.5,63.4,51.5,45.1,40.2,58,42,31,29.87,29.82,10,2,11,0.00
2013-7-31,79.2,70.9,65.3,48.5,19.1,-5.9,53,18,5,29.86,29.79,13,6,14,0.00
2013-8-1,77.9,69.1,64.7,38.5,-0.2,-36.4,31,9,1,29.80,29.72,10,4,11,0.00
2013-8-2,78.6,70.6,64.2,38.5,12.4,-11.8,30,12,4,29.76,29.69,10,4,13,0.00
2013-8-3,80.5,72.3,64.2,45.7,12.9,-12.2,38,13,4,29.77,29.71,7,2,11,0.00
2013-8-4,79.8,73.0,66.6,36.4,12.4,-11.0,24,11,4,29.79,29.75,9,4,11,0.00
2013-8-5,79.0,70.1,66.8,37.0,16.8,-4.8,22,14,5,29.79,29.76,7,3,15,0.00
2013-8-6,77.4,69.3,62.9,34.3,18.4,-2.2,27,15,6,29.81,29.74,12,6,14,0.00
2013-8-7,74.0,66.6,61.0,31.2,20.9,8.9,28,18,10,29.81,29.76,13,9,21,0.00
2013-8-8,73.9,65.9,60.1,31.8,25.4,20.1,33,22,14,29.77,29.70,20,10,23,0.00
2013-8-9,73.3,64.4,58.1,32.9,20.8,4.7,38,20,11,29.73,29.68,17,6,17,0.00
2013-8-10,73.5,65.2,57.8,41.5,16.2,0.7,39,17,8,29.76,29.71,12,3,12,0.00
2013-8-11,77.4,67.2,60.2,44.1,17.6,-1.3,41,17,8,29.75,29.71,9,2,11,0.00
2013-8-12,77.7,69.1,62.3,39.4,28.5,12.0,29,22,13,29.77,29.72,14,3,14,0.00
2013-8-13,77.2,71.0,66.3,44.2,29.5,19.2,42,22,14,29.79,29.74,4,1,16,0.00
2013-8-14,81.1,73.5,68.3,43.5,34.0,19.4,39,24,14,29.79,29.74,9,3,11,0.00
2013-8-15,82.6,74.4,69.6,46.6,39.1,27.2,43,29,20,29.81,29.76,9,3,15,0.00
2013-8-16,84.0,75.7,69.6,49.2,44.7,37.3,44,34,19,29.83,29.79,11,4,16,0.00
2013-8-17,84.9,77.7,71.1,48.3,40.5,31.5,35,27,22,29.82,29.73,11,2,16,0.00
2013-8-18,83.4,76.0,68.3,51.5,44.5,33.9,42,33,23,29.78,29.73,12,4,15,0.00
2013-8-19,78.6,71.3,65.6,52.0,46.6,38.3,56,42,30,29.80,29.74,18,6,20,0.00
2013-8-20,83.2,73.9,66.8,38.1,30.6,13.6,31,21,12,29.77,29.73,13,4,14,0.00
2013-8-21,84.0,74.6,69.1,45.2,37.9,35.1,31,27,18,29.80,29.75,10,2,14,0.00
2013-8-22,80.9,74.5,67.6,57.5,41.1,35.8,70,31,23,29.80,29.73,11,3,15,0.00
2013-8-23,76.7,70.3,65.8,57.0,45.9,35.1,66,42,30,29.76,29.67,12,4,16,0.42
2013-8-24,75.4,67.5,61.3,60.0,45.5,33.4,82,49,25,29.76,29.69,11,3,17,0.00
2013-8-25,68.9,63.7,59.0,59.5,51.2,26.1,95,67,22,29.77,29.72,12,3,17,0.27
2013-8-26,63.5,59.6,56.9,58.2,57.0,55.6,96,91,78,29.78,29.72,14,4,14,0.36
2013-8-27,71.1,65.0,59.9,62.4,57.4,53.7,91,77,62,29.74,29.69,6,4,14,0.00
2013-8-28,75.4,68.9,61.3,59.3,53.8,44.9,80,59,45,29.80,29.69,8,3,13,0.41
2013-8-29,68.1,63.9,61.2,61.3,58.3,54.7,94,82,63,29.85,29.79,18,8,23,0.14
2013-8-30,71.6,64.4,60.2,61.8,59.8,56.6,95,85,65,29.87,29.81,10,4,16,0.00
2013-8-31,75.6,66.2,61.6,61.7,58.9,51.2,95,78,62,29.84,29.76,10,3,14,0.00
2013-9-1,77.7,69.4,62.7,57.0,50.4,44.2,66,51,41,29.79,29.74,12,4,16,0.00
2013-9-2,75.6,68.4,60.5,57.3,50.0,44.1,80,53,41,29.79,29.74,10,2,14,0.33
2013-9-3,76.3,70.7,66.6,56.7,51.2,44.3,61,50,42,29.81,29.75,4,2,11,0.00
2013-9-4,76.1,70.5,66.4,55.7,52.9,48.8,63,54,43,29.83,29.77,13,3,19,0.00
2013-9-5,77.4,71.4,67.1,57.1,50.3,46.0,64,48,40,29.82,29.77,6,1,10,0.04
2013-9-6,78.8,71.9,64.0,55.0,49.8,0.0,64,46,38,29.81,29.76,18,2,23,0.01
2013-9-7,73.7,65.0,54.8,62.2,54.0,49.2,90,68,49,29.79,29.74,12,4,15,1.38
2013-9-8,74.9,67.0,60.9,54.8,51.3,44.7,76,58,34,29.74,29.67,10,2,10,1.38
2013-9-9,72.7,65.7,60.7,52.5,45.9,40.1,68,49,35,29.68,29.61,13,4,20,0.00
2013-9-10,70.1,63.0,57.0,55.5,45.9,31.7,94,55,34,29.74,29.65,10,4,14,0.00
2013-9-11,73.0,65.4,60.2,46.5,26.9,14.5,51,24,16,29.77,29.73,12,3,14,0.00
2013-9-12,75.4,66.7,61.5,44.4,33.6,26.4,40,29,25,29.76,29.70,8,2,11,0.00
2013-9-13,77.6,69.9,63.7,39.3,31.8,25.4,32,25,18,29.71,29.59,6,2,12,0.00
2013-9-14,77.9,72.4,67.8,39.0,36.2,31.2,32,27,23,29.64,29.59,10,2,14,0.00
2013-9-15,77.4,72.4,68.8,41.4,36.9,29.5,33,28,22,29.70,29.63,11,3,13,0.00
2013-9-16,81.1,72.3,65.3,45.3,36.7,30.6,38,28,20,29.72,29.66,14,3,14,0.00
2013-9-17,75.4,67.4,59.9,35.7,26.2,-10.1,38,22,5,29.68,29.59,14,6,19,0.00
2013-9-18,72.1,64.9,59.8,42.3,17.5,-4.2,40,18,7,29.60,29.55,14,5,15,0.00
2013-9-19,71.1,66.3,62.0,28.4,25.8,22.1,25,22,19,29.65,29.58,13,7,17,0.00
2013-9-20,73.5,66.0,58.1,46.4,29.5,11.5,56,27,14,29.67,29.62,10,3,13,0.00
2013-9-21,70.4,59.8,47.1,43.0,19.8,-8.3,83,31,6,29.65,29.53,31,8,32,0.00
2013-9-22,62.1,50.0,39.2,43.3,37.2,28.7,96,66,31,29.60,29.47,33,12,36,0.00
2013-9-23,65.0,59.1,53.5,29.3,25.7,23.2,39,28,22,29.73,29.59,25,14,28,0.00
2013-9-24,73.0,62.3,53.8,42.4,29.1,22.5,58,30,17,29.74,29.65,13,4,18,0.00
2013-9-25,60.4,53.9,47.9,37.5,24.7,1.5,56,34,14,29.64,29.42,32,17,39,0.00
2013-9-26,48.8,44.2,39.5,39.3,27.7,3.6,94,58,17,29.57,29.40,27,14,33,0.00
2013-9-27,54.5,48.0,39.5,37.4,21.1,15.4,92,38,22,29.73,29.58,21,10,26,0.00
2013-9-28,61.0,54.1,48.3,19.6,16.0,10.0,28,22,16,29.80,29.72,27,11,27,0.00
2013-9-29,71.6,63.3,55.1,26.3,15.1,2.0,25,16,10,29.82,29.76,11,2,12,0.00
2013-9-30,73.2,65.1,59.3,27.4,15.4,-2.8,23,15,7,29.78,29.68,11,2,11,0.00
2013-10-1,69.8,61.9,56.0,36.1,20.7,3.4,35,21,10,29.72,29.67,10,6,14,0.00
2013-10-2,66.4,59.4,53.6,43.5,24.3,-3.6,47,29,8,29.70,29.64,12,6,18,0.00
2013-10-3,60.2,55.2,50.8,36.5,19.6,-7.5,51,28,8,29.65,29.55,19,11,25,0.00
2013-10-4,55.1,50.6,46.0,26.6,12.5,7.2,35,22,17,29.77,29.60,24,15,29,0.00
2013-10-5,55.1,49.7,45.1,11.8,9.3,5.2,24,19,13,29.85,29.76,30,18,33,0.00
2013-10-6,62.4,55.6,51.0,13.2,9.7,2.7,21,16,11,29.82,29.77,29,14,33,0.00
2013-10-7,66.4,58.8,52.2,28.5,10.4,0.0,39,15,10,29.77,29.68,13,5,16,0.00
2013-10-8,61.0,52.0,38.8,40.7,20.8,4.0,94,35,14,29.68,29.50,17,8,22,0.00
2013-10-9,37.5,36.1,32.7,36.5,35.1,31.9,97,96,94,29.48,29.36,27,17,37,0.98
2013-10-10,44.6,37.1,31.0,44.6,34.0,26.4,100,90,53,29.66,29.40,24,8,33,0.42
2013-10-11,52.5,46.8,43.1,31.8,28.1,23.0,53,48,44,29.70,29.65,21,9,21,0.00
2013-10-12,59.6,51.1,46.2,44.5,31.7,26.0,73,48,33,29.68,29.62,13,4,16,0.00
2013-10-13,54.4,48.3,43.9,37.4,25.1,-4.6,62,43,10,29.70,29.62,17,10,22,0.00
2013-10-14,54.1,49.4,46.1,25.7,22.8,20.3,40,35,31,29.74,29.69,25,12,25,0.00
2013-10-15,55.7,50.6,46.8,24.6,22.1,19.3,38,32,28,29.73,29.66,14,7,15,0.00
2013-10-16,62.4,52.1,44.8,21.7,18.3,11.1,39,27,15,29.79,29.72,24,8,25,0.00
2013-10-17,63.1,54.7,49.5,22.6,18.0,13.5,31,24,18,29.76,29.68,10,3,10,0.00
2013-10-18,58.7,55.1,52.2,17.5,15.8,14.5,24,21,18,29.76,29.69,19,11,26,0.00
2013-10-19,66.4,57.8,52.6,30.4,15.9,5.8,31,20,9,29.79,29.74,22,8,23,0.00
2013-10-20,68.4,61.2,56.5,22.7,5.6,-23.0,24,12,3,29.76,29.67,10,2,15,0.00
2013-10-21,63.9,59.8,56.2,12.9,0.6,-21.4,17,10,3,29.74,29.69,10,5,15,0.00
2013-10-22,62.1,58.1,55.7,17.1,13.1,10.2,19,17,15,29.75,29.69,12,6,15,0.00
2013-10-23,66.3,58.1,54.2,22.1,17.0,12.8,22,20,16,29.69,29.62,9,4,12,0.00
2013-10-24,61.6,57.8,54.7,23.6,17.9,11.5,28,21,17,29.75,29.64,12,4,13,0.00
2013-10-25,64.3,59.2,55.9,19.6,17.6,14.5,23,20,17,29.83,29.75,15,6,16,0.00
2013-10-26,61.8,58.9,56.5,25.6,21.2,17.1,27,23,20,29.84,29.77,13,7,19,0.00
2013-10-27,63.5,55.8,43.3,31.7,23.7,17.7,58,31,21,29.77,29.50,24,8,29,0.00
2013-10-28,42.2,39.0,34.6,41.5,38.5,32.8,100,98,69,29.53,29.45,32,20,38,0.42
2013-10-29,38.0,35.0,31.0,37.7,34.8,31.0,100,99,99,29.61,29.51,21,11,28,0.31
2013-10-30,46.0,39.2,31.5,32.5,28.4,23.9,100,68,45,29.70,29.59,16,8,21,0.01
2013-10-31,52.8,46.5,40.3,20.4,15.9,11.1,40,29,22,29.77,29.71,19,12,26,0.00
2013-11-1,54.1,50.0,46.1,22.9,18.8,10.5,35,29,22,29.82,29.74,22,16,27,0.00
2013-11-2,59.8,52.0,45.7,31.1,19.0,7.3,43,28,17,29.76,29.62,13,5,15,0.00
2013-11-3,54.1,47.9,43.3,33.7,16.9,5.2,53,30,18,29.62,29.51,16,9,25,0.00
2013-11-4,45.7,40.9,35.6,35.3,29.4,16.1,92,65,30,29.56,29.45,16,8,23,0.00
2013-11-5,47.4,41.1,37.3,22.8,12.3,0.0,52,32,18,29.77,29.56,26,14,30,0.00
2013-11-6,50.1,45.4,40.1,9.5,-1.7,-9.9,20,14,8,29.87,29.78,25,18,27,0.00
2013-11-7,59.2,54.1,48.0,6.7,-2.8,-15.2,13,10,6,29.84,29.77,18,7,19,0.00
2013-11-8,65.2,57.8,53.2,17.5,10.0,1.9,22,15,11,29.76,29.69,6,1,11,0.00
2013-11-9,62.6,56.3,51.9,11.4,2.5,-15.8,18,12,5,29.79,29.71,6,2,11,0.00
2013-11-10,63.7,55.9,49.8,21.1,11.3,4.6,32,17,13,29.81,29.76,17,5,22,0.00
2013-11-11,59.6,54.0,49.2,33.2,28.2,17.0,44,37,27,29.84,29.76,19,11,22,0.00
2013-11-12,62.6,58.7,54.8,30.1,24.2,18.5,31,26,20,29.91,29.84,16,8,21,0.00
2013-11-13,63.2,58.4,55.4,31.0,26.0,20.0,38,29,22,29.87,29.75,12,7,17,0.00
2013-11-14,65.6,56.9,50.1,29.8,24.9,18.5,40,29,20,29.76,29.57,13,8,16,0.00
2013-11-15,51.0,43.6,36.5,39.3,32.1,22.6,100,68,34,29.55,29.34,22,12,24,0.00
2013-11-16,36.6,34.9,32.7,36.6,34.9,32.7,100,100,100,29.55,29.43,17,10,20,0.00
2013-11-17,51.3,42.2,34.3,38.5,34.3,31.2,100,74,57,29.72,29.56,16,8,17,0.00
2013-11-18,54.4,45.9,38.0,43.3,36.2,28.1,99,70,47,29.77,29.69,9,4,12,0.00
2013-11-19,58.6,50.8,44.5,28.5,18.5,7.5,53,29,15,29.70,29.60,15,6,20,0.00
2013-11-20,48.3,43.6,41.1,41.8,35.0,20.8,100,75,35,29.61,29.55,25,13,25,0.03
2013-11-21,42.6,40.1,37.0,42.6,40.0,36.8,100,100,99,29.55,29.51,19,10,27,0.23
2013-11-22,37.2,33.9,31.2,37.0,33.7,31.0,99,99,99,29.56,29.48,11,2,12,0.34
2013-11-23,35.3,32.1,30.4,35.3,32.0,30.1,100,99,99,29.67,29.56,9,3,12,0.01
2013-11-24,40.6,33.5,30.6,38.3,31.5,28.8,100,93,66,29.77,29.67,25,7,25,0.01
2013-11-25,45.5,39.2,32.7,30.2,26.1,20.8,90,62,37,29.83,29.75,27,16,32,0.00
2013-11-26,46.0,42.2,39.6,28.2,24.6,22.1,61,50,40,29.85,29.76,24,15,28,0.00
2013-11-27,48.2,40.5,37.6,30.1,26.3,22.3,69,57,40,29.75,29.61,15,9,20,0.00
2013-11-28,49.1,41.9,38.0,36.9,27.3,21.0,86,57,35,29.70,29.59,13,4,16,0.00
2013-11-29,46.5,42.3,39.5,35.5,30.3,24.5,85,63,50,29.81,29.70,9,2,12,0.00
2013-11-30,48.6,44.8,42.6,37.4,31.3,27.8,77,59,49,29.84,29.75,11,6,13,0.00
2013-12-1,49.1,45.7,42.8,26.3,21.6,2.0,50,39,14,29.87,29.82,22,15,23,0.00
2013-12-2,59.9,53.6,48.6,16.3,7.5,-0.9,20,15,11,29.82,29.62,16,6,18,0.00
2013-12-3,50.8,43.6,36.9,38.8,23.1,6.2,100,52,20,29.60,29.38,23,15,29,0.21
2013-12-4,37.8,31.0,25.7,37.8,29.8,25.2,100,95,74,29.50,29.34,32,8,39,0.44
2013-12-5,27.6,25.2,22.5,26.1,23.5,20.3,98,93,91,29.60,29.47,16,6,16,0.01
2013-12-6,31.8,25.7,22.7,26.3,23.1,20.5,93,90,76,29.65,29.59,11,4,18,0.02
2013-12-7,31.9,27.5,24.1,31.9,26.6,22.1,100,96,92,29.60,29.47,27,8,28,0.01
2013-12-8,30.4,25.4,21.6,30.4,23.8,19.4,100,94,87,29.65,29.56,0,0,0,0.02
2013-12-9,24.4,21.7,16.9,19.4,3.9,-11.2,88,51,21,29.80,29.65,16,5,17,0.00
2013-12-10,40.5,34.4,22.5,-9.6,-13.6,-17.8,20,12,9,29.78,29.70,16,12,25,0.01
2013-12-11,43.1,40.0,35.9,2.6,-4.9,-17.5,21,15,7,29.77,29.71,23,12,23,0.02
2013-12-12,48.3,40.6,36.3,27.3,12.4,1.1,59,32,22,29.78,29.72,15,6,21,0.03
2013-12-13,51.7,43.8,37.9,10.0,6.8,0.6,28,22,16,29.81,29.71,15,6,23,0.00
2013-12-14,41.6,38.6,35.5,12.1,10.3,8.4,36,31,27,29.90,29.79,26,17,33,0.00
2013-12-15,51.3,45.2,38.0,14.9,7.8,2.4,28,22,14,29.89,29.83,25,18,31,0.00
2013-12-16,58.3,53.5,48.9,16.4,14.5,11.4,25,21,17,29.89,29.83,23,17,24,0.00
2013-12-17,62.1,56.5,52.2,17.6,13.5,4.5,22,18,11,29.88,29.79,20,10,22,0.00
2013-12-18,59.6,52.1,37.9,19.5,11.9,-1.9,47,22,8,29.77,29.48,18,6,19,0.00
2013-12-19,34.6,30.8,26.3,32.2,30.2,25.3,100,98,73,29.45,29.30,15,7,28,0.23
2013-12-20,38.8,32.9,27.5,33.6,28.0,16.6,100,83,46,29.51,29.33,5,2,9,0.11
2013-12-21,51.4,41.0,32.2,37.0,23.4,13.7,72,50,35,29.67,29.49,20,6,23,0.00
2013-12-22,46.4,40.8,37.9,24.9,23.3,21.5,57,50,37,29.84,29.66,21,14,28,0.00
2013-12-23,43.1,40.2,37.8,22.9,21.7,20.3,53,47,40,29.92,29.85,31,20,31,0.00
2013-12-24,52.8,47.6,43.3,23.7,19.7,12.9,43,33,23,29.87,29.80,22,14,28,0.00
2013-12-25,46.0,43.5,41.3,24.0,12.9,5.6,45,29,20,29.87,29.80,31,17,31,0.00
2013-12-26,44.8,42.5,40.6,5.1,2.0,-1.5,21,18,14,29.83,29.74,29,19,31,0.00
2013-12-27,51.6,47.0,42.2,7.3,2.0,-3.8,18,15,13,29.84,29.77,21,12,24,0.00
2013-12-28,53.1,48.4,44.5,8.5,4.4,-4.9,19,16,12,29.76,29.62,14,4,21,0.00
2013-12-29,43.9,41.0,37.0,8.8,2.8,-5.5,27,20,14,29.74,29.64,28,18,32,0.00
2013-12-30,59.6,49.0,39.2,7.8,-7.2,-21.6,16,10,5,29.87,29.76,19,7,28,0.00
2013-12-31,60.2,53.8,49.2,13.6,2.9,-13.4,20,13,6,29.85,29.75,9,2,14,0.00
2014-1-1,52.2,49.4,46.8,17.2,7.6,0.7,29,19,12,29.81,29.75,21,12,25,0.00
2014-1-2,57.2,50.8,46.0,19.8,17.1,14.7,30,26,22,29.81,29.73,15,6,16,0.00